Probability
0 0 0 0 0 0 0 0 0 0 0 0 0 0 0 0 0 0 0 0 0 0 0 0 0 0 0 0 0 0 0 0 0 0 0 0 0 0 0 0 0 0 0
0 0 0 0 0 0 0 0 0 0 0 0 0 0 0 0 0 0 0 0 0 0 0 0 0 0 0 0 0 0 0 0 0 0 0 0 0 0 0 0 0 0 0
0 0 0 0 0 0 0 0 0 0 0 0 0 0 0 0 0 0 0 0 0 0 0 0 0 0 0 0 0 0 0 0 0 0 0 0 0 0 0 0 0 0 0
0 0 0 0 0 0 0 0 0 0 0 0 0 0 0 0 0 0 0 0 0 0 0 0 0 0 0 0 0 0 0 0 0 0 0 0 0 0 0 0 0 0 0
0 0 0 0 0 0 0 0 0 0 0 0 0 0 0 0 0 0 0 0 0 0 0 0 0 0 0 0 0 0 0 0 0 0 0 0 0 0 0 0 0 0 0
0 0 0 0 0 0 0 0 0 0 0 0 0 0 0 0 0 0 0 0 0 0 0 0 0 0 0 0 0 0 0 0 0 0 0 0 0 0 0 0 0 0 0
0 0 0 0 0 0 0 0 0 0 0 0 0 0 0 0 0 0 0 0 0 0 0 0 0 0 0 0 0 0 0 0 0 0 0 0 0 0 0 0 0 0 0
0 0 0 0 0 0 0 0 0 0 0 0 0 0 0 0 0 0 0 0 0 0 0 0 0 0 0 0 0 0 0 0 0 0 0 0 0 0 0 0 0 0 0
0 0 0 0 0 0 0 0 0 0 0 0 0 0 0 0 0 0 0 0 0 0 0 0 0 0 0 0 0 0 0 0 0 0 0 0 0 0 0 0 0 0 0
0 0 0 0 0 0 0 0 0 0 0 0 0 0 0 0 0 0 0 0 0 0 0 0 0 0 0 0 0 0 0 0 0 0 0 0 0 0 0 0 0 0 0
0 0 0 0 0 0 0 0 0 0 0 0 0 0 0 0 0 0 0 0 0 0 0 0 0 0 0 0 0 0 0 0 0 0 0 0 0 0 0 0 0 0 0
0 0 0 0 0 0 0 0 0 0 0 0 0 0 0 0 0 0 0 0 0 0 0 0 0 0 0 0 0 0 0 0 0 0 0 0 0 0 0 0 0 0 0
0 0 0 0 0 0 0 0 0 0 0 0 0 0 0 0 0 0 0 0 0 0 0 0 0 0 0 0 0 0 0 0 0 0 0 0 0 0 0 0 0 0 0
0 0 0 0 0 0 0 0 0 0 0 0 0 0 0 0 0 0 0 0 0 0 0 0 0 0 0 0 0 0 0 0 0 0 0 0 0 0 0 0 0 0 0
0 0 0 0 0 0 0 0 0 0 0 0 0 0 0 0 0 0 0 0 0 0 0 0 0 0 0 0 0 0 0 0 0 0 0 0 0 0 0 0 0 0 0
0 0 0 0 0 0 0 0 0 0 0 0 0 0 0 0 0 0 0 0 0 0 0 0 0 0 0 0 0 0 0 0 0 0 0 0 0 0 0 0 0 0 0
0 0 0 0 0 0 0 0 0 0 0 0 0 0 0 0 0 0 0 0 0 0 0 0 0 0 0 0 0 0 0 0 0 0 0 0 0 0 0 0 0 0 0
0 0 0 0 0 0 0 0 0 0 0 0 0 0 0 0 0 0 0 0 0 0 0 0 0 0 0 0 0 0 0 0 0 0 0 0 0 0 0 0 0 0 0
0 0 0 0 0 0 0 0 0 0 0 0 0 0 0 0 0 0 0 0 0 0 0 0 0 0 0 0 0 0 0 0 0 0 0 0 0 0 0 0 0 0 0
0 0 0 0 0 0 0 0 0 0 0 0 0 0 0 0 0 0 0 0 0 0 0 0 0 0 0 0 0 0 0 0 0 0 0 0 0 0 0 0 0 0 0
0 0 0 0 0 0 0 0 0 0 0 0 0 0 0 0 0 0 0 0 0 0 0 0 0 0 0 0 0 0 0 0 0 0 0 0 0 0 0 0 0 0 0
0 0 0 0 0 0 0 0 0 0 0 0 0 0 0 0 0 0 0 0 0 0 0 0 0 0 0 0 0 0 0 0 0 0 0 0 0 0 0 0 0 0 0
0 0 0 0 0 0 0 0 0 0 0 0 0 0 0 0 0 0 0 0 0 0 0 0 0 0 0 0 0 0 0 0 0 0 0 0 0 0 0 0 0 0 0
0 0 0 0 0 0 0 0 0 0 0 0 0 0 0 0 0 0 0 0 0 0 0 0 0 0 0 0 0 0 0 0 0 0 0 0 0 0 0 0 0 0 0
0 0 0 0 0 0 0 0 0 0 0 0 0 0 0 0 0 0 0 0 0 0 0 0 0 0 0 0 0 0 0 0 0 0 0 0 0 0 0 0 0 0 0
0 0 0 0 0 0 0 0 0 0 0 0 0 0 0 0 0 0 0 0 0 0 0 0 0 0 0 0 0 0 0 0 0 0 0 0 0 0 0 0 0 0 0
Height
5873 5873 5874 5874 5874 5873 5873 5872 5871 5870 5869 5868 5867 5865 5863 5862 5859 5857 5855 5853 5850 5847 5844 5841 5838 5834 5830 5827 5823 5820 5816 5813 5811 5808 5805 5803 5800 5798 5796 5794 5793 5791 5791
5869 5869 5870 5870 5870 5869 5869 5868 5867 5866 5865 5864 5862 5861 5859 5857 5855 5852 5850 5848 5845 5841 5838 5835 5832 5828 5824 5821 5817 5813 5810 5807 5804 5801 5799 5796 5794 5792 5790 5788 5786 5785 5784
5864 5865 5865 5865 5865 5865 5864 5863 5862 5861 5860 5859 5857 5856 5854 5852 5849 5847 5844 5842 5839 5836 5832 5829 5825 5822 5818 5814 5810 5807 5803 5800 5797 5794 5792 5789 5787 5785 5783 5781 5779 5778 5777
5860 5860 5860 5860 5860 5860 5859 5858 5857 5856 5855 5853 5852 5850 5848 5846 5844 5841 5838 5835 5832 5829 5826 5822 5818 5814 5811 5807 5803 5800 5796 5793 5790 5787 5784 5782 5779 5777 5775 5773 5771 5770 5769
5854 5855 5855 5854 5854 5854 5853 5852 5851 5850 5849 5847 5846 5844 5842 5840 5837 5834 5831 5828 5825 5822 5818 5815 5811 5807 5803 5800 5796 5793 5789 5785 5782 5779 5776 5774 5772 5769 5767 5765 5763 5762 5761
5848 5848 5848 5848 5848 5847 5847 5846 5845 5844 5842 5841 5839 5838 5836 5833 5830 5827 5824 5821 5818 5814 5811 5807 5804 5800 5796 5792 5788 5785 5781 5778 5774 5771 5768 5765 5763 5761 5758 5756 5754 5753 5752
5841 5841 5841 5841 5841 5840 5840 5839 5837 5836 5835 5833 5832 5831 5829 5826 5823 5820 5817 5813 5810 5806 5803 5799 5795 5791 5788 5784 5780 5777 5773 5770 5766 5763 5760 5757 5754 5752 5749 5747 5745 5744 5743
5833 5833 5834 5834 5833 5833 5832 5831 5830 5828 5827 5825 5823 5822 5821 5820 5816 5813 5810 5806 5802 5798 5795 5791 5787 5783 5780 5776 5772 5768 5765 5761 5758 5755 5751 5748 5746 5743 5740 5738 5736 5734 5733
5825 5825 5826 5825 5825 5825 5824 5823 5821 5820 5819 5817 5814 5812 5811 5810 5808 5805 5802 5798 5794 5790 5786 5782 5778 5774 5771 5767 5764 5760 5756 5753 5750 5746 5743 5740 5737 5734 5731 5729 5726 5724 5723
5816 5817 5817 5817 5816 5816 5815 5814 5813 5811 5810 5808 5806 5804 5802 5799 5797 5795 5792 5788 5785 5781 5777 5773 5769 5766 5762 5758 5755 5751 5748 5744 5741 5738 5735 5731 5728 5725 5722 5719 5717 5714 5712
5807 5807 5807 5807 5807 5806 5806 5805 5803 5802 5800 5799 5797 5795 5793 5790 5788 5785 5783 5779 5775 5771 5768 5764 5761 5757 5753 5750 5746 5743 5739 5736 5733 5729 5726 5723 5720 5717 5713 5710 5708 5705 5703
5798 5798 5797 5797 5797 5796 5796 5795 5794 5792 5791 5789 5787 5785 5783 5781 5779 5776 5773 5770 5766 5763 5759 5755 5752 5748 5745 5741 5738 5734 5731 5728 5724 5721 5718 5715 5712 5709 5705 5702 5699 5696 5693
5788 5788 5787 5787 5787 5786 5785 5785 5784 5782 5781 5779 5778 5776 5774 5771 5769 5766 5764 5761 5757 5753 5750 5746 5742 5739 5736 5733 5729 5726 5723 5720 5716 5713 5710 5707 5704 5701 5697 5694 5690 5687 5685
5777 5777 5777 5777 5776 5776 5775 5774 5773 5772 5771 5769 5768 5766 5764 5761 5759 5756 5754 5751 5747 5744 5740 5737 5733 5730 5727 5724 5721 5718 5715 5712 5709 5706 5703 5700 5697 5694 5690 5687 5683 5680 5677
5766 5766 5766 5766 5766 5765 5765 5764 5763 5762 5761 5759 5757 5756 5754 5751 5749 5746 5743 5741 5738 5735 5732 5728 5725 5721 5719 5716 5713 5710 5707 5704 5701 5698 5695 5693 5690 5687 5683 5680 5677 5674 5672
5754 5755 5755 5755 5755 5754 5754 5753 5752 5751 5750 5749 5747 5745 5743 5741 5738 5736 5733 5730 5728 5725 5722 5719 5716 5713 5710 5707 5705 5702 5699 5697 5694 5691 5688 5685 5683 5680 5677 5674 5671 5668 5666
5743 5743 5744 5744 5743 5743 5743 5742 5741 5740 5739 5738 5736 5735 5733 5730 5728 5726 5723 5720 5718 5715 5713 5710 5707 5704 5702 5699 5697 5694 5692 5689 5686 5684 5681 5678 5676 5673 5670 5668 5665 5663 5660
5731 5732 5732 5732 5732 5732 5731 5731 5730 5729 5728 5727 5725 5724 5722 5720 5718 5715 5713 5711 5708 5706 5704 5701 5699 5696 5694 5691 5689 5686 5684 5682 5679 5676 5674 5671 5668 5666 5663 5661 5658 5656 5654
5720 5720 5720 5720 5720 5720 5719 5719 5718 5717 5716 5715 5714 5712 5711 5709 5707 5705 5703 5701 5699 5697 5695 5693 5690 5688 5686 5683 5681 5679 5676 5674 5672 5669 5666 5664 5661 5659 5656 5654 5651 5649 5647
5708 5708 5708 5708 5708 5708 5707 5707 5706 5705 5704 5703 5702 5701 5700 5698 5697 5695 5694 5692 5690 5689 5687 5684 5682 5680 5678 5675 5673 5671 5669 5666 5664 5661 5659 5656 5653 5651 5648 5646 5643 5641 5639
5696 5696 5696 5696 5696 5695 5695 5695 5694 5693 5693 5692 5691 5690 5689 5688 5687 5686 5684 5683 5681 5680 5678 5676 5674 5672 5670 5667 5665 5663 5661 5658 5656 5653 5650 5648 5645 5642 5640 5637 5635 5633 5631
5684 5684 5684 5684 5684 5683 5683 5683 5682 5682 5681 5681 5680 5680 5679 5678 5677 5677 5675 5674 5673 5671 5669 5668 5666 5664 5662 5659 5657 5655 5652 5650 5647 5645 5642 5639 5636 5633 5631 5628 5626 5623 5621
5672 5672 5672 5672 5672 5671 5671 5671 5671 5671 5671 5670 5670 5670 5669 5669 5668 5668 5667 5665 5664 5663 5661 5660 5657 5655 5653 5651 5649 5646 5644 5641 5638 5635 5632 5629 5626 5623 5620 5618 5615 5613 5610
5661 5661 5661 5660 5660 5660 5660 5660 5660 5660 5660 5660 5660 5660 5660 5660 5659 5659 5658 5657 5655 5654 5652 5651 5649 5647 5644 5642 5639 5637 5634 5631 5628 5625 5622 5619 5616 5613 5610 5607 5604 5601 5599
5650 5650 5650 5649 5649 5649 5650 5650 5650 5650 5651 5651 5651 5651 5651 5651 5651 5650 5650 5648 5647 5645 5643 5641 5639 5637 5635 5632 5630 5627 5624 5621 5618 5615 5612 5609 5605 5602 5599 5595 5592 5588 5586
5640 5640 5639 5639 5639 5639 5640 5640 5640 5641 5642 5642 5642 5643 5643 5643 5643 5642 5641 5640 5638 5636 5634 5632 5630 5628 5625 5622 5619 5617 5614 5611 5607 5604 5600 5597 5594 5590 5587 5583 5578 5575 5571
Wind_Speed
17 16 16 17 17 17 18 19 19 20 21 22 23 24 25 27 28 30 31 32 34 35 36 37 38 38 38 37 36 35 34 34 33 33 32 32 31 31 30 29 28 28 27
20 19 19 19 19 19 20 21 21 22 23 24 25 26 27 29 30 32 33 34 35 36 37 39 39 39 39 38 37 36 35 35 34 34 33 33 32 31 31 31 31 30 29
22 22 21 21 21 22 22 23 24 24 25 26 27 28 30 31 32 34 35 36 36 37 39 40 41 40 40 38 37 36 36 35 35 35 34 34 33 33 32 33 33 32 31
25 25 24 24 24 24 24 25 26 27 28 29 30 31 32 33 34 36 37 37 38 39 40 41 42 42 40 39 38 37 37 36 36 36 36 35 35 35 34 34 34 34 33
29 28 28 28 27 27 27 28 28 29 30 31 32 33 34 35 36 37 38 39 40 41 42 43 43 42 41 40 39 39 38 37 37 37 37 36 36 36 36 35 35 35 35
32 32 31 31 30 30 30 31 31 32 32 33 34 35 36 37 38 38 39 40 42 42 43 44 43 42 42 41 40 39 39 39 38 38 38 37 37 37 36 36 35 35 35
35 35 34 34 34 33 33 34 34 35 35 36 37 37 37 38 39 39 40 41 43 44 44 44 44 43 42 41 40 40 39 39 39 38 38 38 37 37 36 36 36 35 35
38 38 38 38 37 37 37 37 37 38 38 39 40 40 39 38 39 40 40 41 43 44 45 45 45 43 42 41 40 40 39 39 38 38 38 37 37 36 36 36 36 36 36
41 41 41 41 40 40 40 40 40 41 41 41 41 42 42 41 41 41 41 42 43 44 44 45 44 43 42 41 40 40 39 38 38 37 37 37 36 36 36 35 35 36 36
44 44 45 44 44 44 43 43 43 43 43 42 43 43 44 44 43 43 43 44 44 44 45 44 44 43 42 41 40 39 38 38 37 36 36 35 35 35 35 34 34 34 34
47 47 47 47 46 46 45 45 45 45 44 44 44 43 43 44 44 44 44 44 45 45 45 44 43 42 41 40 39 38 37 37 36 35 34 33 33 33 33 32 32 32 34
48 48 48 48 48 47 46 46 46 45 45 44 44 44 44 44 44 44 44 44 45 45 44 43 42 41 41 39 38 37 36 36 34 34 33 32 32 31 31 31 32 32 32
49 49 49 48 47 46 46 46 46 45 44 44 44 44 44 44 44 44 44 44 44 44 43 42 41 40 39 38 37 36 35 34 33 32 31 31 31 30 30 30 30 30 30
49 49 48 47 47 46 46 46 45 45 45 45 45 44 44 44 44 45 45 44 44 43 42 41 40 39 38 36 35 34 33 32 31 31 31 30 29 28 28 28 27 27 26
49 48 47 47 46 46 46 45 45 45 45 45 45 45 44 44 45 45 45 44 43 41 40 39 38 38 36 34 33 32 31 30 30 30 29 29 28 28 27 27 26 25 24
48 48 47 47 47 47 46 46 46 46 45 45 45 45 45 45 45 44 44 42 41 40 38 38 37 35 34 32 32 31 30 30 30 29 28 28 28 27 27 27 25 24 24
48 48 48 47 47 47 47 47 47 46 46 45 45 45 45 44 44 43 42 40 39 38 37 36 34 33 32 31 30 30 29 29 29 28 28 28 28 28 27 27 26 25 24
48 48 48 48 48 48 48 47 47 46 46 46 46 45 44 44 43 42 40 39 37 36 35 33 32 31 30 30 30 29 29 28 28 28 28 28 28 28 28 27 27 27 26
47 47 48 48 48 48 48 47 47 46 46 45 44 44 43 43 41 40 38 36 35 34 33 32 31 30 29 29 29 28 28 28 28 28 29 29 29 29 29 29 29 28 27
47 47 47 47 47 47 47 46 46 45 45 44 43 43 42 41 39 37 35 34 33 33 31 31 30 29 28 28 28 28 28 29 29 30 30 30 30 30 30 30 30 30 30
46 46 46 46 45 45 45 45 44 44 43 42 41 40 39 38 36 34 33 32 32 31 30 29 28 28 28 28 29 29 30 30 31 31 31 31 32 32 32 32 32 32 32
44 44 44 44 44 44 44 43 43 42 41 40 38 37 35 34 33 33 32 31 31 30 29 28 28 28 29 29 30 31 32 32 32 33 33 33 33 34 34 34 34 34 35
42 43 43 43 43 43 42 42 40 39 38 36 35 34 33 32 31 31 30 30 29 29 28 28 29 29 30 31 32 33 33 33 34 34 34 35 35 35 36 36 36 37 37
41 41 41 41 41 40 39 38 37 36 35 34 32 31 30 30 29 29 29 29 29 29 29 29 30 31 32 32 33 34 34 35 36 36 36 36 36 37 37 38 38 39 39
39 39 38 38 37 36 35 34 34 33 32 31 30 29 29 28 28 29 29 29 30 30 30 31 31 32 33 34 35 35 36 36 37 37 38 38 38 39 40 41 41 42 42
36 35 34 34 33 33 32 32 31 30 30 29 29 29 28 29 29 29 29 30 30 31 32 32 33 34 35 35 36 36 37 37 38 38 39 39 40 41 42 43 44 44 44
Wind_Direction
263 269 276 281 285 289 293 296 299 301 303 305 307 309 311 312 313 314 315 316 317 318 318 320 321 321 320 318 316 314 312 310 308 306 304 303 301 299 297 296 295 293 290
263 269 275 280 284 288 291 294 297 299 301 302 304 306 308 309 310 311 312 314 315 316 317 319 319 319 318 316 315 313 311 308 306 304 302 301 300 299 297 295 294 292 290
265 270 275 280 284 287 289 292 295 297 298 300 302 304 306 307 308 309 310 311 312 314 316 317 318 317 317 315 313 311 308 306 304 303 302 300 299 298 297 295 293 291 289
266 271 276 280 283 286 289 291 293 295 297 298 300 302 303 305 307 308 309 309 311 313 315 316 316 316 315 313 312 309 307 304 303 302 301 300 299 297 296 294 292 291 288
267 271 276 280 283 286 288 291 293 295 296 297 299 301 302 304 306 308 308 309 310 312 314 314 315 314 313 311 310 308 306 303 302 301 300 299 298 298 296 294 292 290 288
269 272 276 280 283 285 288 290 292 293 295 296 298 299 301 303 305 307 307 308 309 311 312 313 313 312 311 309 308 307 305 303 302 301 300 300 298 298 296 295 292 290 287
269 272 276 279 282 284 287 289 291 292 293 295 296 298 300 302 303 305 306 307 308 309 311 311 311 310 309 308 307 306 304 302 302 301 300 300 299 298 296 294 292 289 287
270 273 275 278 280 283 286 288 290 291 293 294 296 297 298 300 301 303 304 305 306 308 309 309 309 308 308 307 306 304 303 302 301 301 301 301 300 298 296 295 293 290 287
270 273 276 278 280 282 284 286 288 290 292 293 295 296 298 299 300 302 303 304 305 306 307 307 307 307 306 305 305 304 303 302 302 301 301 301 300 299 298 297 295 292 288
271 273 275 277 279 281 283 285 287 289 291 292 293 295 297 298 300 301 303 304 305 306 306 306 306 305 305 304 304 303 302 302 302 302 301 301 300 300 299 299 297 294 290
272 274 275 277 278 280 282 284 285 287 289 291 292 294 295 297 299 300 302 303 304 304 305 304 304 304 304 304 303 303 303 303 302 302 301 301 301 301 300 300 298 295 292
272 273 274 276 277 279 281 283 285 286 288 289 291 292 294 296 297 299 300 301 302 302 303 303 303 303 303 303 303 303 303 303 302 302 302 302 303 303 302 302 300 298 295
271 272 273 275 276 278 280 282 284 285 286 288 289 291 293 294 295 297 299 300 300 301 301 301 301 301 302 303 303 303 303 303 303 303 302 303 303 304 304 303 302 299 297
270 271 272 274 275 277 279 281 282 284 285 287 288 290 291 293 294 296 298 298 299 299 299 300 300 300 302 302 303 303 303 303 303 303 303 303 303 305 305 305 305 303 301
269 270 272 273 275 277 279 280 281 282 284 286 287 289 290 292 293 295 296 296 297 297 298 298 299 300 301 302 302 303 303 303 303 303 303 303 303 305 306 305 306 305 303
269 270 271 273 275 277 278 279 280 282 283 285 286 288 289 291 292 293 293 294 294 295 296 297 298 299 299 301 302 303 303 303 303 303 303 303 304 304 306 306 306 306 303
268 270 271 273 274 276 277 279 280 282 283 285 286 287 288 290 291 291 291 292 293 294 295 296 297 297 298 300 301 302 302 302 302 303 303 303 303 303 304 305 305 305 303
269 270 271 273 274 276 277 279 280 282 283 284 284 285 287 288 288 288 289 290 291 293 294 295 296 296 297 299 300 301 301 301 301 302 302 303 303 303 303 303 303 303 302
269 271 272 273 275 276 278 279 280 281 282 282 283 284 285 286 285 286 287 288 290 291 292 293 294 295 296 298 299 299 300 300 301 301 301 302 302 302 302 301 301 301 300
270 271 273 274 275 276 277 277 278 279 280 280 281 282 283 283 283 284 285 287 288 289 290 291 292 293 295 297 297 298 298 299 300 300 300 300 300 300 300 299 298 298 297
271 271 272 273 273 274 275 276 276 277 278 278 279 281 281 281 282 283 283 285 286 287 288 290 291 292 294 296 297 297 298 298 299 299 300 299 299 299 298 297 296 295 294
271 272 272 272 273 273 274 275 275 275 276 277 278 278 279 280 280 280 281 283 284 286 288 289 290 291 294 295 296 297 297 298 298 299 299 299 298 298 297 296 295 294 292
274 274 273 273 273 273 273 273 273 273 274 275 276 276 276 277 277 279 281 282 283 285 286 289 290 291 293 295 296 297 297 297 297 298 298 298 297 297 296 296 295 294 292
274 273 273 273 273 272 272 272 271 271 273 273 274 274 274 275 276 278 280 281 282 284 286 288 290 291 293 294 296 296 297 297 297 297 298 297 297 297 297 296 295 293 292
273 273 273 272 271 271 270 270 270 270 270 271 271 271 271 273 275 277 279 281 283 285 287 289 290 292 293 295 296 297 297 297 297 297 297 297 297 297 297 297 296 294 292
273 273 272 272 271 269 268 268 267 267 268 268 269 269 271 273 275 278 280 282 284 286 288 290 291 292 294 295 296 297 297 298 298 298 298 297 297 298 298 297 296 295 293